Location: Caramacate
(10.0289°N, 66.7587°W)
Time: 20:55:19
(UTC+00:00)

Cosmos 2263 - Pass Details

Date: 05 August 2024
Orbit: 829 x 865 km, 70.9° (Epoch: 07 September)

Event Time Altitude Azimuth Distance (km) Brightness Sun altitude
Rises 23:43:03 0° 195° (SSW) 3,383 7.3 -13.5°
Reaches altitude 10° 23:45:28 10° 195° (SSW) 2,454 6.6 -14.1°
Maximum altitude 23:51:07 88° 104° (ESE) 851 4.2 -15.4°
Drops below altitude 10° 23:56:49 10° 17° (NNE) 2,477 6.7 -16.7°
Sets 23:59:17 0° 17° (NNE) 3,418 7.4 -17.3°
